EHI
0 0 0 0 0 0 0 0 0 0 0 0 0 0 0 0 0 0 0 0 0 0 0 0 0 1 1 1 0 1 1 1 1 1 1 2 3 1 0 0 0 1 1
0 0 0 0 0 0 0 0 0 0 0 0 0 0 0 0 0 0 0 0 0 0 0 0 0 0 0 0 0 1 1 0 1 1 2 3 3 2 1 0 1 1 1
0 0 0 0 0 0 0 0 0 0 0 0 0 0 0 0 0 0 0 0 0 0 0 0 0 0 0 0 0 0 0 0 1 2 3 3 3 2 1 0 1 2 2
0 0 0 0 0 0 0 0 0 0 0 0 0 0 0 0 0 0 0 0 0 0 0 0 0 0 0 0 0 0 0 0 0 1 2 2 1 1 0 0 1 1 1
0 0 0 0 0 0 0 0 0 0 0 0 0 0 0 0 0 0 0 0 0 0 0 0 0 0 0 0 0 0 0 0 0 0 1 1 0 0 0 0 0 0 0
0 0 0 0 0 0 0 0 0 0 0 0 0 0 0 0 0 0 0 0 0 0 0 0 0 0 0 0 0 0 0 0 0 0 0 0 0 0 0 1 0 0 0
0 0 0 0 0 0 0 0 0 0 0 0 0 0 0 0 0 0 0 0 0 0 0 0 0 0 0 0 0 0 0 0 0 0 0 0 0 0 0 0 0 0 0
0 0 0 0 0 0 0 0 0 0 0 0 0 0 0 0 0 0 0 0 0 0 0 0 0 0 0 0 0 0 0 0 0 0 0 0 0 0 0 0 0 0 0
0 0 0 0 0 0 0 0 0 0 0 0 0 0 0 0 0 0 0 0 0 0 0 0 0 0 0 0 0 0 0 0 0 0 0 0 0 0 0 0 0 0 0
0 0 0 0 0 0 0 0 0 0 0 0 0 0 0 0 0 0 0 0 0 0 0 0 0 0 0 0 0 0 0 0 0 0 0 0 0 0 0 0 0 0 0
0 0 0 0 0 0 0 0 0 0 0 0 0 0 0 0 0 0 0 0 0 0 0 0 0 0 0 0 0 0 0 0 0 0 0 0 0 0 0 0 0 0 0
0 0 0 0 0 0 0 0 0 0 0 0 0 0 0 0 0 0 0 0 0 0 0 0 0 0 0 0 0 0 0 0 0 0 0 0 0 0 0 0 0 0 0
0 0 0 0 0 0 0 0 0 0 0 0 0 0 0 0 0 0 0 0 0 0 0 0 0 0 0 0 0 0 0 0 0 0 0 0 0 0 0 0 0 0 0
0 0 0 0 0 0 0 0 0 0 0 0 0 0 0 0 0 0 0 0 0 0 0 0 0 0 0 0 0 0 0 0 0 0 0 0 0 0 0 0 0 0 0
0 0 0 0 0 0 0 0 0 0 0 0 0 0 0 0 0 0 0 0 0 0 0 0 0 0 0 0 0 0 0 0 0 0 0 0 0 0 0 0 0 0 0
0 0 0 0 0 0 0 0 0 0 0 0 0 0 0 0 0 0 0 0 0 0 0 0 0 0 0 0 0 0 0 0 0 0 0 0 0 0 0 0 0 0 0
0 0 0 0 0 0 0 0 0 0 0 0 0 0 0 0 0 0 0 0 0 0 0 0 0 0 0 0 0 0 0 0 0 0 0 0 0 0 0 0 0 0 0
0 0 0 0 0 0 0 0 0 0 0 0 0 0 0 0 0 0 0 0 0 0 0 0 0 0 0 0 0 0 0 0 0 0 0 0 0 0 0 0 0 0 0
0 0 0 0 0 0 0 0 0 0 0 0 0 0 0 0 0 0 0 0 0 0 0 0 0 0 0 0 0 0 0 0 0 0 0 0 0 0 0 0 0 0 0
0 0 0 0 0 0 0 0 0 0 0 0 0 0 0 0 0 0 0 0 0 0 0 0 0 0 0 0 0 0 0 0 0 0 0 0 0 0 0 0 0 0 0
0 0 0 0 0 0 0 0 0 0 0 0 0 0 0 0 0 0 0 0 0 0 0 0 0 0 0 0 0 0 0 0 0 0 0 0 0 0 0 0 0 0 0
0 0 0 0 0 0 0 0 0 0 0 0 0 0 0 0 0 0 0 0 0 0 0 0 0 0 0 0 0 0 0 0 0 0 0 0 0 0 0 0 0 0 0
0 0 0 0 0 0 0 0 0 0 0 0 0 0 0 0 0 0 0 0 0 0 0 0 0 0 0 0 0 0 0 0 0 0 0 0 0 0 0 0 0 0 0
0 0 0 0 0 0 0 0 0 0 0 0 0 0 0 0 0 0 0 0 0 0 0 0 0 0 0 0 0 0 0 0 0 0 0 0 0 0 0 0 0 0 0
0 0 0 0 0 0 0 0 0 0 0 0 0 0 0 0 0 0 0 0 0 0 0 0 0 0 0 0 0 0 0 0 0 0 0 0 0 0 0 0 0 0 0
0 0 0 0 0 0 0 0 0 0 0 0 0 0 0 0 0 0 0 0 0 0 0 0 0 0 0 0 0 0 0 0 0 0 0 0 0 0 0 0 0 0 0
Wind_Speed
2 2 2 2 2 2 2 2 2 3 3 3 2 2 1 1 1 1 0 1 2 3 3 4 4 4 3 3 2 2 2 3 3 4 4 4 4 4 4 3 4 4 5
2 2 2 2 3 2 2 2 2 2 2 2 3 3 1 1 1 1 1 1 1 2 2 3 3 3 3 3 3 2 3 3 4 4 4 4 4 3 3 3 3 3 4
3 3 3 3 3 3 3 3 3 3 3 4 4 3 2 2 1 2 1 1 1 1 2 2 2 3 3 3 3 3 4 4 4 4 4 3 3 3 2 2 2 3 4
4 3 3 3 3 3 3 2 3 3 3 3 3 3 3 2 2 2 2 2 1 1 2 2 3 2 3 3 3 3 4 4 4 4 4 3 3 2 2 1 1 3 4
4 3 3 3 3 3 3 3 3 2 2 3 2 3 3 3 2 3 3 2 2 2 2 2 3 3 3 3 3 3 4 4 4 4 3 3 2 2 1 1 0 2 3
4 4 3 3 3 3 3 3 3 3 2 2 3 4 3 3 3 3 3 2 2 3 2 3 2 3 5 4 4 4 3 3 3 3 3 2 2 1 1 1 0 1 2
4 4 3 3 3 3 3 3 2 4 3 2 3 3 4 4 4 3 3 3 3 3 3 3 2 2 2 5 5 4 4 3 3 3 2 2 1 1 0 0 1 1 2
4 3 3 2 3 3 4 4 3 2 3 3 2 2 3 5 4 4 3 3 3 3 3 3 3 2 2 2 3 4 3 3 3 3 2 2 2 1 1 1 1 1 2
4 4 3 3 3 3 2 3 2 3 2 3 2 3 2 0 2 3 4 3 3 2 2 2 3 2 2 1 2 3 3 3 3 3 3 2 2 2 2 2 2 2 3
3 3 4 4 3 3 2 2 3 2 2 2 2 2 1 2 2 1 3 3 3 3 2 2 2 2 2 1 2 2 2 3 3 3 3 3 3 3 3 3 2 3 3
4 3 3 4 4 3 3 3 3 3 2 2 1 1 2 2 2 2 1 3 3 3 2 2 1 1 1 1 1 2 2 3 4 4 4 4 4 3 3 3 3 3 2
3 4 3 4 3 3 3 3 3 4 3 3 2 2 2 1 1 1 1 1 2 3 2 2 2 2 1 1 1 2 3 3 4 5 5 4 4 4 4 4 4 3 3
1 2 3 3 3 3 3 3 4 4 3 3 3 2 2 1 0 1 1 0 1 2 3 2 2 2 2 1 1 3 3 4 4 5 5 4 4 4 4 5 5 5 4
0 1 2 3 3 3 4 3 3 3 3 3 4 3 2 2 2 1 1 1 1 2 3 3 3 2 2 2 2 2 2 5 5 5 5 5 5 4 5 5 6 6 6
1 2 3 3 3 3 4 4 3 3 3 3 3 3 3 2 2 2 2 2 2 1 2 3 3 3 3 2 3 2 2 4 5 5 6 6 5 5 5 5 6 6 6
2 3 3 3 3 3 3 4 3 3 4 3 2 4 3 2 3 3 2 2 1 2 1 2 2 3 3 3 4 2 3 6 6 6 6 6 6 6 6 6 6 7 6
2 3 2 3 3 3 3 3 3 3 4 4 3 3 3 2 3 3 2 2 2 1 0 2 2 3 3 4 4 3 3 3 3 6 6 6 6 6 6 7 7 7 5
2 2 2 3 3 3 3 3 3 3 3 3 3 3 3 2 3 2 2 2 2 1 1 1 2 2 3 3 3 4 4 4 3 6 6 7 7 7 7 7 7 7 6
3 2 3 3 2 2 3 2 2 3 3 2 2 2 2 2 2 2 2 2 2 2 1 0 2 2 2 3 3 4 4 3 4 5 6 7 7 7 7 7 7 7 7
3 2 3 2 2 2 2 2 3 3 3 3 2 2 2 1 1 1 2 2 2 2 2 1 2 2 2 3 2 3 4 3 4 4 4 6 7 8 8 8 8 8 7
3 2 3 3 2 2 2 3 3 3 3 3 3 3 3 4 5 3 2 1 1 1 1 1 2 2 3 3 3 3 3 4 4 2 3 4 4 4 5 7 8 8 8
2 3 3 3 3 3 5 6 4 3 3 3 3 3 3 4 6 7 7 6 3 1 1 1 1 2 3 3 3 3 3 3 4 3 2 4 3 3 4 3 6 8 8
2 2 2 2 2 2 5 6 6 4 3 2 2 2 4 5 5 3 5 7 6 7 4 1 1 3 3 3 3 3 3 3 4 4 2 4 3 3 4 5 8 8 8
2 1 1 1 2 2 4 5 5 4 3 2 2 1 2 3 4 4 3 4 4 4 4 2 2 4 4 3 3 3 4 4 4 3 1 3 3 4 5 4 8 8 8
1 1 1 1 1 1 3 4 5 3 3 3 2 2 2 2 6 7 4 4 5 5 6 7 6 6 7 7 4 2 2 2 4 4 2 2 3 4 4 4 5 8 9
2 1 1 1 1 0 2 4 4 2 2 2 2 3 4 5 8 7 3 2 4 5 5 6 6 6 5 5 6 1 1 1 2 4 3 2 3 3 5 3 3 4 5
Wind_Direction
56 35 17 11 358 356 8 11 13 19 14 16 35 59 55 77 79 77 21 109 108 115 115 106 99 97 101 100 86 71 128 142 142 147 149 151 153 157 160 172 174 179 181
63 48 32 18 11 12 22 37 36 32 17 25 29 37 66 81 71 71 52 31 55 83 107 105 98 94 98 104 88 86 119 126 142 149 142 139 140 139 147 164 175 176 174
63 61 46 27 11 13 25 31 33 32 30 32 27 27 44 49 64 56 56 42 5 24 87 102 101 94 90 94 84 85 110 120 128 139 131 126 124 125 126 149 176 187 181
56 59 50 27 13 26 32 37 34 32 24 24 21 18 28 36 51 63 58 52 33 21 38 69 77 73 71 78 85 79 89 106 107 116 122 120 118 112 106 116 186 194 190
52 58 46 25 27 34 28 31 37 39 30 18 21 23 21 29 30 60 59 49 43 47 39 37 47 50 52 54 72 78 76 84 87 88 98 107 111 104 97 92 153 193 190
49 57 49 33 35 40 28 28 32 29 34 16 35 33 18 15 23 37 47 50 41 47 49 45 35 36 47 52 59 73 69 68 72 72 71 77 87 92 99 97 74 210 201
47 58 52 37 38 45 33 29 33 32 20 17 48 18 0 13 24 22 27 48 45 43 49 49 42 36 29 43 45 62 68 65 59 58 61 52 41 13 341 207 204 219 219
39 51 54 43 41 44 34 32 39 40 19 27 80 70 15 357 355 11 12 34 38 35 42 46 47 51 38 35 27 38 48 55 49 40 36 28 21 5 318 286 253 244 238
37 41 47 47 41 50 41 31 46 65 40 14 51 111 112 253 321 341 2 14 14 25 25 32 49 51 48 38 16 13 26 28 21 15 0 349 358 357 338 311 277 275 265
34 41 45 50 48 44 36 26 54 65 77 35 11 39 122 157 134 350 341 353 6 15 4 22 37 39 39 28 3 3 14 11 358 350 346 342 335 336 335 322 311 294 269
24 40 50 53 50 43 40 42 47 54 66 76 43 27 43 48 73 117 351 338 351 343 345 352 12 17 19 21 357 2 10 358 351 348 341 335 330 329 327 323 315 312 286
11 28 49 52 51 48 47 48 53 58 52 59 53 53 70 69 47 100 124 320 328 319 337 349 357 338 334 344 348 10 2 349 345 340 336 334 328 321 315 308 306 309 303
13 11 42 46 44 43 51 55 55 50 48 54 53 49 50 51 94 126 117 63 354 323 336 339 335 332 328 331 324 341 344 341 339 336 327 322 325 326 322 313 304 298 295
175 46 58 53 48 47 53 56 54 47 52 53 53 53 47 30 43 80 123 117 41 351 349 322 321 329 324 311 296 311 327 330 332 335 337 333 331 330 328 321 313 302 291
96 76 71 65 51 47 52 59 53 43 54 50 46 45 42 20 30 39 63 101 125 53 327 314 322 325 326 318 314 311 316 324 327 330 336 337 337 333 326 326 318 307 298
79 80 71 62 52 44 50 58 49 37 48 35 38 46 34 19 27 30 38 40 85 137 258 298 296 305 324 342 342 327 314 325 320 320 321 324 328 324 321 321 322 317 302
90 87 83 72 59 45 43 54 48 47 50 36 34 48 29 27 35 25 30 37 45 91 136 299 304 319 346 347 342 336 327 318 316 318 316 320 321 317 318 320 319 325 314
93 93 85 75 62 53 51 59 53 50 53 41 28 38 18 32 34 23 28 25 20 41 106 318 314 330 334 335 332 335 338 337 321 325 327 323 321 319 318 318 319 322 323
86 76 76 74 66 60 59 59 71 63 54 44 38 42 11 38 22 12 21 16 4 20 43 29 312 315 319 336 340 333 334 329 326 325 327 327 321 316 313 311 313 314 315
90 75 68 70 69 65 62 58 67 64 47 35 36 43 34 50 24 10 21 9 16 24 17 11 333 324 315 318 340 332 331 328 321 324 332 331 327 321 314 308 303 302 300
87 83 74 56 49 62 65 73 66 68 54 36 27 27 35 43 39 33 36 11 35 31 11 5 338 335 327 334 327 312 315 314 308 311 320 321 323 322 318 311 304 298 295
80 78 73 72 60 54 63 72 77 63 55 50 31 16 24 30 21 20 25 26 27 21 342 334 311 309 296 296 304 316 317 333 315 310 319 307 318 313 311 310 310 307 301
90 80 73 81 72 50 62 66 68 73 61 52 43 29 23 16 15 9 8 12 10 6 353 267 261 275 278 280 297 308 303 294 277 287 309 295 304 303 303 314 314 314 315
111 106 92 99 86 46 61 64 65 66 58 40 35 47 35 360 1 5 6 2 348 338 328 325 260 266 275 274 252 264 274 293 289 290 289 284 299 299 304 303 311 316 321
116 117 121 119 102 22 44 58 64 64 51 25 13 21 20 1 354 5 14 353 339 328 329 334 330 326 325 330 331 345 339 337 312 300 299 279 289 299 295 291 307 323 323
140 123 92 103 121 48 21 51 67 78 56 10 352 347 349 351 347 354 360 346 329 312 320 331 336 335 332 333 339 330 270 296 298 295 297 295 290 314 305 292 302 312 313